map of CMN home
Great Circle Mapper logo
CMN - Airport
Location
City:  Casablanca, Morocco
Name:Mohammed V International Airport
ICAO / IATA:GMMN / CMN

Details
Type:Airport (Aerodrome, Airfield)
Use:Public/Civil, International (customs port of entry)
Latitude:3322'03"N (33.367467)
Longitude:735'24"W (-7.589966)
Datum:WGS 1984
Elevation:656 ft (200 m)
Runways:2
Longest:12205 × 148 ft (3720 × 45 m), paved

Time
Time Zone:UTC+0 (DST+1)
Local Time:

Weather
METAR:GMMN 200300Z 14003KT 9999 NSC 19/06 Q1012 NOSIG
TAF:GMMN 192300Z 2000/2106 12004KT 7000 NSC
TEMPO 2004/2008 VRB02KT 3000 BR BKN006
BECMG 2010/2012 04008KT CAVOK
BECMG 2014/2016 30012KT
TEMPO 2103/2106 VRB02KT 4000 BR SCT008

Related Locations
Nearby:
Farthest:KAT: 12304 mi / 19802 km
Kaitaia, NZ

Find:

   beyond  
but within

Other Information
Maps:
NOTAMs:
Links:
Sources:

  
flag of Morocco   

Sectional Chart

Flight Planning
at skyvector.com

Satellite Image

Google Maps Satellite View

 

Copyright © 2004-2014 Karl L. Swartz. All rights reserved.
The Great Circle Mapper name and logo are trademarks of the Great Circle Mapper.
All other trademarks mentioned herein belong to their respective owners.
Please see credits for attibutions and further copyright information.

  Follow gcmap on Facebook Follow gcmap on Twitter

hCard Microformat

Geo Microformat